Sitka, Alaska, United States (99835)
Lat: 57.05N, Lon: 135.33W
Wx Zone: AKZ023
Local Info
Past Weather Observations for Tuesday, May 19, 2015

NOTE: This archive is for the closest National Weather Service station to Sitka. Information may differ from the station used for current weather conditions.

Click here for Long-term Archive

Time Weather Temperature Dewpoint Humidity Pressure Winds Precip Visibility
23:53
Overcast
52°F / 11°C 46°F / 8°C 82% 30.18 in
(1022 mb)
NNE 9.2 mph
(NNE 15 kph)
- 10SM
22:53
Overcast
52°F / 11°C 46°F / 8°C 82% 30.21 in
(1023 mb)
NNW 9.2 mph
(NNW 15 kph)
- 10SM
21:53
Mostly Cloudy
52°F / 11°C 46°F / 8°C 82% 30.21 in
(1023 mb)
NW 16.1 mph
(NW 26 kph)
- 10SM
20:53
Partly Cloudy
52°F / 11°C 46°F / 8°C 82% 30.21 in
(1023 mb)
NW 16.1 mph
(NW 26 kph)
- 10SM
19:53
Partly Cloudy
52°F / 11°C 46°F / 8°C 82% 30.18 in
(1022 mb)
NW 16.1 mph
(NW 26 kph)
- 10SM
18:53
Partly Cloudy
54°F / 12°C 46°F / 8°C 77% 30.18 in
(1022 mb)
NW 12.7 mph
(NW 20 kph)
- 10SM
17:53
Partly Cloudy
55°F / 13°C 46°F / 8°C 72% 30.18 in
(1022 mb)
NW 12.7 mph
(NW 20 kph)
- 10SM
16:53
Clear
55°F / 13°C 48°F / 9°C 77% 30.18 in
(1022 mb)
WNW 13.8 mph
(WNW 22 kph)
- 10SM
15:53
Clear
57°F / 14°C 48°F / 9°C 72% 30.18 in
(1022 mb)
W 9.2 mph
(W 15 kph)
- 10SM
14:53
Clear
55°F / 13°C 48°F / 9°C 77% 30.18 in
(1022 mb)
SSW 5.8 mph
(SSW 9 kph)
- 10SM
13:53
Clear
54°F / 12°C 46°F / 8°C 77% 30.18 in
(1022 mb)
SSW 4.6 mph
(SSW 7 kph)
- 10SM
12:53
Clear
54°F / 12°C 46°F / 8°C 77% 30.21 in
(1023 mb)
SSW 4.6 mph
(SSW 7 kph)
- 10SM
11:53
Clear
57°F / 14°C 48°F / 9°C 72% 30.21 in
(1023 mb)
WNW 8.1 mph
(WNW 13 kph)
- 10SM
11:37
Partly Cloudy
55°F / 13°C 46°F / 8°C 72% 30.21 in
(1023 mb)
NW 4.6 mph
(NW 7 kph)
- 10SM
10:53
Overcast
54°F / 12°C 46°F / 8°C 77% 30.18 in
(1022 mb)
WNW 3.5 mph
(WNW 6 kph)
- 10SM
09:53
Overcast
52°F / 11°C 46°F / 8°C 82% 30.18 in
(1022 mb)
NW 5.8 mph
(NW 9 kph)
- 10SM
09:27
Overcast
52°F / 11°C 46°F / 8°C 82% 30.18 in
(1022 mb)
NW 8.1 mph
(NW 13 kph)
- 10SM
08:53
Overcast
50°F / 10°C 46°F / 8°C 88% 30.18 in
(1022 mb)
NW 8.1 mph
(NW 13 kph)
- 10SM
07:53
Overcast
50°F / 10°C 46°F / 8°C 88% 30.18 in
(1022 mb)
NNW 8.1 mph
(NNW 13 kph)
- 10SM
06:53
Overcast
48°F / 9°C 46°F / 8°C 94% 30.18 in
(1022 mb)
NNW 9.2 mph
(NNW 15 kph)
- 9SM
05:53
Overcast
48°F / 9°C 46°F / 8°C 94% 30.18 in
(1022 mb)
NNW 9.2 mph
(NNW 15 kph)
- 10SM
04:53
Overcast
50°F / 10°C 46°F / 8°C 88% 30.18 in
(1022 mb)
NNW 8.1 mph
(NNW 13 kph)
- 10SM
03:53
Overcast
50°F / 10°C 46°F / 8°C 88% 30.18 in
(1022 mb)
NNW 4.6 mph
(NNW 7 kph)
- 10SM
02:53
Overcast
50°F / 10°C 46°F / 8°C 88% 30.18 in
(1022 mb)
NW 9.2 mph
(NW 15 kph)
- 10SM
01:53
Overcast
50°F / 10°C 46°F / 8°C 88% 30.15 in
(1021 mb)
NW 5.8 mph
(NW 9 kph)
- 10SM
00:53
Overcast
50°F / 10°C 46°F / 8°C 88% 30.15 in
(1021 mb)
NW 8.1 mph
(NW 13 kph)
- 10SM
Time Weather Temperature Dewpoint Humidity Pressure Winds Precip Visibility


Weather for websites

WeatherForYou.com, LLC is not responsible for any damages or problems caused by this service. Current weather conditions are obtained from the closest station including government and personal stations which may have varying degrees of accuracy. Weather forecasts are derived from the NOAA NDFD. Like all things, this site belongs to Jesus Christ... He just trusts us to maintain it. If you have any questions or comments email webmaster@weatherforyou.com

Copyright © 2015, WeatherForYou.com LLC. All rights reserved.